Temp
-11 -11 -11 -11 -12 -11 -11 -11 -11 -11 -11 -11 -11 -11 -11 -11 -11 -11 -11 -11 -11 -11 -11 -12 -12 -12 -12 -12 -12 -12 -13 -13 -12 -12 -12 -13 -13 -13 -13 -14 -15 -16 -17 -17 -18 -18 -19
-12 -12 -12 -12 -12 -12 -12 -11 -11 -11 -11 -11 -11 -11 -11 -11 -11 -11 -11 -11 -11 -11 -12 -12 -12 -12 -12 -12 -12 -12 -13 -13 -13 -13 -13 -13 -13 -13 -14 -14 -15 -16 -17 -17 -18 -18 -18
-12 -12 -12 -12 -12 -12 -12 -12 -12 -11 -11 -11 -11 -11 -11 -11 -11 -11 -11 -11 -12 -12 -12 -12 -12 -12 -12 -13 -13 -13 -13 -13 -13 -13 -13 -14 -14 -14 -14 -14 -15 -16 -16 -17 -17 -18 -18
-12 -12 -12 -12 -12 -12 -13 -12 -12 -12 -12 -12 -11 -12 -12 -12 -12 -12 -12 -12 -12 -12 -12 -12 -12 -13 -13 -13 -13 -13 -13 -13 -13 -14 -14 -14 -14 -14 -14 -15 -15 -16 -16 -17 -18 -18 -18
-13 -13 -13 -13 -13 -13 -13 -13 -13 -13 -12 -12 -12 -12 -12 -12 -12 -12 -12 -12 -12 -12 -12 -13 -13 -13 -13 -13 -13 -14 -14 -14 -14 -14 -14 -14 -14 -15 -15 -15 -15 -16 -16 -16 -17 -18 -18
-13 -13 -13 -13 -13 -13 -13 -13 -13 -13 -13 -12 -12 -12 -12 -12 -12 -12 -12 -12 -12 -13 -13 -13 -13 -13 -13 -14 -14 -14 -14 -14 -14 -14 -14 -14 -15 -15 -15 -15 -15 -15 -15 -17 -17 -18 -18
-13 -13 -13 -13 -13 -13 -13 -13 -13 -13 -13 -13 -13 -13 -13 -13 -13 -13 -13 -13 -13 -13 -13 -13 -13 -13 -14 -14 -14 -14 -14 -14 -14 -14 -15 -15 -15 -15 -15 -15 -15 -15 -16 -16 -17 -17 -17
-13 -14 -14 -14 -14 -14 -14 -14 -14 -14 -14 -13 -13 -13 -13 -14 -14 -14 -14 -13 -14 -13 -13 -14 -14 -14 -14 -14 -14 -15 -15 -14 -15 -15 -15 -15 -15 -15 -15 -16 -16 -15 -16 -16 -17 -17 -17
-14 -14 -14 -14 -14 -14 -14 -15 -14 -14 -14 -14 -14 -14 -14 -14 -14 -14 -14 -14 -14 -14 -14 -14 -14 -14 -14 -15 -15 -15 -15 -15 -15 -15 -15 -15 -15 -15 -15 -16 -16 -16 -16 -16 -16 -17 -17
-14 -14 -14 -13 -14 -14 -15 -15 -16 -15 -15 -14 -15 -14 -14 -14 -15 -15 -15 -14 -14 -14 -14 -14 -14 -14 -15 -15 -15 -15 -15 -15 -15 -15 -15 -16 -16 -16 -15 -15 -16 -16 -16 -16 -16 -16 -17
-14 -14 -14 -14 -14 -14 -15 -15 -16 -16 -16 -15 -15 -15 -15 -15 -15 -15 -15 -15 -15 -15 -15 -15 -15 -15 -15 -15 -15 -15 -16 -16 -16 -16 -16 -16 -16 -16 -16 -16 -16 -16 -16 -16 -16 -16 -16
-15 -15 -15 -14 -15 -15 -15 -16 -16 -17 -17 -17 -16 -16 -15 -15 -15 -15 -15 -15 -15 -15 -15 -15 -15 -15 -15 -15 -16 -16 -16 -16 -16 -16 -16 -16 -16 -16 -16 -16 -16 -16 -16 -16 -16 -16 -16
-14 -14 -15 -15 -15 -15 -15 -15 -16 -16 -17 -17 -17 -16 -16 -16 -15 -15 -15 -15 -15 -16 -16 -16 -16 -16 -16 -16 -16 -16 -16 -16 -16 -16 -16 -16 -16 -16 -16 -16 -16 -16 -16 -16 -16 -16 -16
-14 -14 -14 -15 -14 -15 -15 -15 -15 -16 -17 -17 -17 -17 -17 -17 -16 -16 -16 -16 -16 -16 -16 -16 -16 -16 -16 -16 -16 -16 -16 -16 -16 -17 -16 -16 -16 -17 -17 -17 -16 -16 -16 -16 -16 -16 -16
-14 -14 -14 -14 -14 -14 -14 -15 -15 -16 -16 -16 -17 -17 -18 -18 -17 -17 -17 -16 -17 -17 -16 -16 -16 -16 -16 -16 -16 -16 -17 -17 -17 -17 -17 -17 -17 -17 -17 -17 -17 -17 -17 -17 -16 -16 -16
-15 -15 -15 -15 -15 -15 -15 -15 -15 -16 -16 -16 -16 -17 -17 -18 -18 -18 -17 -17 -17 -18 -18 -17 -17 -17 -17 -17 -17 -17 -17 -17 -17 -17 -17 -17 -17 -17 -17 -17 -17 -17 -17 -17 -17 -16 -16
-15 -15 -15 -15 -16 -15 -15 -15 -15 -15 -15 -16 -16 -17 -17 -17 -17 -17 -17 -17 -17 -18 -18 -18 -18 -18 -18 -17 -17 -18 -17 -18 -18 -18 -18 -18 -18 -18 -18 -18 -18 -18 -18 -17 -17 -17 -17
-16 -16 -16 -16 -15 -16 -16 -16 -15 -16 -16 -16 -16 -16 -16 -17 -17 -17 -17 -17 -17 -17 -17 -17 -17 -18 -18 -18 -17 -18 -18 -18 -18 -18 -18 -18 -17 -17 -18 -18 -18 -18 -18 -18 -17 -17 -18
-15 -16 -16 -16 -16 -16 -16 -16 -16 -16 -16 -16 -17 -17 -17 -17 -17 -17 -17 -17 -17 -17 -17 -17 -17 -17 -18 -18 -18 -17 -17 -18 -18 -18 -18 -18 -17 -17 -17 -18 -17 -18 -18 -18 -18 -17 -17
-15 -15 -15 -15 -16 -16 -17 -17 -17 -17 -17 -17 -17 -17 -17 -17 -17 -17 -17 -17 -17 -17 -17 -17 -17 -17 -17 -18 -18 -17 -17 -17 -17 -17 -18 -17 -17 -18 -17 -18 -18 -18 -18 -18 -18 -18 -17
-16 -16 -16 -16 -16 -16 -17 -18 -18 -18 -18 -18 -18 -18 -18 -17 -17 -17 -17 -17 -17 -17 -17 -17 -17 -17 -18 -17 -17 -17 -17 -17 -17 -17 -17 -17 -16 -17 -17 -18 -17 -18 -18 -18 -18 -18 -17
-17 -17 -17 -17 -17 -18 -18 -19 -19 -19 -19 -19 -19 -19 -18 -18 -18 -18 -18 -18 -18 -19 -18 -18 -18 -18 -18 -18 -18 -18 -18 -17 -17 -17 -17 -17 -17 -17 -16 -18 -18 -17 -18 -18 -18 -18 -17
-19 -18 -18 -19 -19 -19 -20 -20 -20 -20 -20 -20 -20 -20 -21 -20 -20 -19 -19 -19 -19 -19 -19 -19 -19 -19 -19 -19 -18 -18 -18 -18 -17 -17 -18 -18 -18 -17 -16 -17 -17 -16 -17 -18 -18 -18 -17
-20 -19 -20 -20 -20 -19 -19 -19 -19 -19 -19 -19 -19 -20 -20 -19 -19 -20 -19 -19 -19 -19 -19 -18 -19 -18 -19 -18 -18 -18 -18 -18 -18 -18 -18 -18 -18 -18 -17 -17 -16 -16 -17 -18 -18 -18 -18
-20 -20 -21 -20 -20 -20 -20 -19 -20 -20 -20 -20 -20 -19 -19 -19 -19 -19 -19 -19 -19 -19 -19 -19 -19 -19 -20 -19 -19 -18 -18 -18 -17 -18 -18 -18 -18 -18 -18 -17 -16 -16 -18 -18 -18 -18 -18
-21 -21 -21 -21 -21 -21 -20 -20 -20 -20 -20 -19 -19 -19 -19 -19 -19 -19 -19 -19 -19 -19 -19 -19 -19 -19 -20 -19 -19 -18 -18 -18 -17 -17 -18 -18 -19 -19 -18 -18 -17 -17 -18 -19 -19 -17 -19
-22 -22 -21 -21 -21 -21 -20 -20 -20 -20 -20 -19 -19 -19 -19 -19 -19 -19 -19 -18 -18 -19 -18 -19 -19 -20 -20 -20 -20 -20 -19 -19 -18 -18 -18 -19 -19 -19 -19 -19 -17 -17 -19 -19 -19 -19 -20
-22 -21 -21 -21 -21 -21 -20 -20 -20 -20 -20 -20 -19 -20 -19 -19 -19 -20 -20 -20 -19 -20 -19 -19 -19 -20 -20 -21 -21 -20 -20 -20 -19 -18 -18 -19 -20 -19 -20 -20 -17 -19 -20 -20 -20 -20 -20
-21 -21 -21 -21 -21 -21 -21 -21 -21 -20 -20 -21 -20 -20 -20 -20 -19 -19 -20 -21 -22 -22 -21 -20 -19 -20 -22 -22 -22 -22 -22 -21 -20 -18 -19 -19 -19 -20 -20 -19 -19 -19 -20 -20 -20 -20 -20
Height
5833 5833 5832 5831 5831 5831 5830 5829 5828 5828 5827 5826 5825 5823 5822 5821 5819 5818 5817 5815 5813 5811 5809 5806 5804 5801 5798 5796 5793 5789 5785 5780 5775 5769 5763 5757 5751 5743 5736 5727 5719 5710 5703 5694 5687 5681 5677
5831 5831 5830 5830 5829 5828 5828 5828 5827 5826 5825 5824 5822 5821 5820 5818 5816 5815 5813 5812 5810 5808 5805 5803 5800 5798 5795 5793 5790 5786 5782 5777 5772 5767 5761 5755 5749 5741 5735 5727 5718 5709 5700 5693 5685 5678 5673
5828 5829 5829 5828 5827 5826 5826 5825 5824 5823 5823 5821 5820 5819 5817 5816 5814 5812 5811 5809 5807 5804 5802 5800 5797 5795 5793 5790 5787 5783 5780 5776 5770 5764 5759 5752 5747 5740 5733 5726 5717 5709 5702 5691 5683 5677 5672
5826 5827 5826 5825 5825 5824 5823 5822 5822 5821 5820 5819 5817 5816 5815 5813 5811 5809 5808 5806 5804 5802 5800 5798 5795 5792 5790 5787 5784 5781 5777 5772 5767 5762 5756 5751 5744 5739 5733 5726 5718 5710 5701 5692 5681 5674 5669
5823 5823 5823 5823 5822 5821 5821 5820 5819 5818 5817 5816 5815 5813 5812 5811 5809 5807 5805 5803 5802 5800 5797 5795 5792 5790 5788 5785 5782 5778 5775 5771 5765 5759 5754 5749 5742 5736 5731 5726 5720 5710 5700 5690 5683 5674 5668
5819 5819 5819 5819 5818 5818 5817 5816 5816 5814 5814 5813 5811 5810 5808 5807 5806 5804 5802 5801 5799 5797 5795 5793 5790 5789 5786 5783 5779 5776 5772 5768 5764 5758 5753 5747 5741 5734 5729 5723 5716 5707 5699 5691 5681 5676 5668
5816 5816 5815 5815 5815 5814 5813 5813 5812 5811 5809 5808 5808 5806 5805 5804 5802 5801 5799 5798 5797 5795 5792 5790 5788 5785 5783 5781 5778 5774 5770 5765 5761 5756 5750 5745 5740 5734 5727 5721 5714 5708 5701 5691 5683 5676 5669
5812 5811 5811 5810 5810 5809 5809 5808 5807 5807 5806 5804 5804 5802 5801 5800 5799 5797 5796 5794 5793 5791 5789 5787 5785 5783 5781 5778 5776 5772 5768 5764 5759 5754 5749 5744 5738 5734 5727 5720 5713 5707 5700 5693 5685 5678 5671
5806 5805 5805 5804 5803 5802 5802 5802 5803 5802 5802 5800 5799 5798 5797 5796 5795 5794 5792 5791 5789 5787 5786 5784 5782 5779 5778 5776 5772 5769 5765 5761 5756 5752 5747 5743 5737 5731 5726 5720 5714 5706 5700 5694 5687 5679 5672
5799 5798 5797 5796 5795 5794 5794 5795 5796 5797 5797 5796 5795 5793 5792 5791 5792 5790 5788 5786 5784 5782 5781 5781 5778 5777 5774 5772 5769 5765 5761 5759 5754 5750 5744 5740 5735 5729 5724 5719 5712 5707 5701 5694 5688 5681 5674
5793 5791 5790 5788 5787 5786 5787 5787 5789 5789 5790 5790 5789 5788 5787 5786 5785 5785 5784 5781 5780 5778 5777 5777 5774 5772 5770 5768 5766 5762 5759 5756 5751 5746 5743 5738 5733 5728 5722 5717 5711 5706 5700 5695 5689 5682 5676
5787 5786 5784 5783 5781 5780 5780 5781 5782 5781 5781 5782 5782 5781 5781 5780 5779 5778 5777 5776 5775 5775 5773 5772 5769 5767 5765 5763 5760 5758 5754 5751 5749 5746 5740 5736 5731 5726 5721 5714 5709 5705 5700 5695 5689 5684 5678
5780 5779 5778 5777 5776 5775 5775 5774 5774 5773 5773 5773 5773 5774 5774 5772 5772 5771 5769 5769 5769 5768 5768 5766 5764 5762 5760 5758 5756 5753 5750 5746 5744 5742 5739 5734 5728 5724 5720 5715 5709 5703 5699 5695 5690 5683 5679
5773 5773 5771 5770 5769 5769 5768 5767 5767 5766 5765 5765 5764 5764 5764 5765 5764 5763 5762 5762 5760 5762 5760 5758 5756 5755 5754 5752 5750 5747 5745 5742 5739 5736 5733 5730 5726 5721 5715 5710 5705 5700 5695 5691 5685 5682 5679
5769 5767 5765 5764 5763 5762 5760 5759 5758 5757 5757 5757 5756 5756 5756 5755 5755 5754 5754 5753 5754 5754 5752 5750 5748 5747 5747 5745 5743 5740 5739 5737 5733 5731 5728 5723 5724 5717 5713 5708 5704 5698 5694 5691 5686 5683 5679
5759 5758 5757 5756 5755 5754 5753 5753 5750 5748 5748 5747 5747 5747 5746 5746 5745 5744 5744 5744 5745 5745 5743 5741 5740 5740 5739 5738 5736 5733 5731 5731 5727 5724 5721 5719 5717 5715 5710 5706 5702 5697 5693 5689 5684 5679 5677
5751 5750 5749 5748 5746 5745 5745 5744 5743 5742 5740 5739 5738 5738 5738 5737 5737 5735 5733 5736 5737 5736 5734 5732 5731 5730 5731 5730 5728 5727 5725 5723 5721 5718 5715 5712 5711 5712 5706 5703 5699 5696 5690 5687 5684 5680 5674
5740 5739 5738 5738 5737 5736 5734 5733 5732 5732 5731 5731 5730 5728 5728 5728 5728 5725 5727 5728 5727 5726 5724 5723 5722 5722 5721 5720 5718 5718 5717 5716 5714 5711 5708 5707 5702 5703 5703 5699 5695 5692 5688 5683 5681 5678 5674
5726 5725 5724 5723 5724 5723 5723 5721 5721 5721 5720 5719 5719 5719 5718 5718 5717 5718 5717 5717 5716 5715 5714 5713 5712 5713 5712 5711 5709 5707 5707 5709 5707 5704 5699 5698 5696 5695 5696 5696 5692 5689 5685 5680 5676 5674 5672
5713 5711 5710 5709 5708 5708 5708 5708 5708 5708 5708 5708 5707 5706 5706 5705 5705 5706 5705 5705 5704 5704 5703 5702 5701 5701 5700 5700 5699 5696 5697 5697 5696 5694 5691 5688 5687 5689 5688 5687 5683 5683 5681 5676 5672 5669 5668
5701 5700 5697 5695 5694 5694 5693 5692 5692 5692 5692 5693 5693 5692 5693 5691 5692 5691 5691 5691 5691 5689 5690 5689 5690 5690 5687 5687 5687 5687 5687 5685 5683 5683 5681 5680 5678 5679 5680 5681 5676 5675 5677 5673 5668 5665 5661
5687 5686 5685 5683 5682 5680 5679 5677 5675 5675 5676 5676 5676 5677 5677 5677 5676 5675 5674 5676 5675 5673 5674 5675 5675 5675 5674 5675 5675 5675 5674 5675 5674 5672 5670 5669 5667 5667 5668 5671 5668 5665 5670 5667 5663 5661 5657
5677 5674 5673 5671 5670 5669 5667 5666 5664 5663 5663 5660 5660 5659 5659 5663 5662 5661 5662 5660 5660 5660 5661 5659 5660 5660 5661 5661 5661 5663 5662 5662 5662 5660 5658 5657 5657 5657 5656 5658 5658 5654 5665 5660 5657 5656 5652
5666 5663 5661 5660 5658 5659 5657 5655 5654 5652 5651 5650 5649 5649 5650 5650 5650 5649 5649 5648 5648 5646 5648 5649 5648 5646 5649 5647 5648 5648 5647 5648 5648 5648 5647 5645 5646 5646 5645 5645 5642 5648 5649 5652 5649 5648 5645
5653 5651 5649 5649 5648 5646 5645 5644 5643 5640 5639 5638 5637 5637 5636 5637 5637 5638 5635 5634 5635 5635 5635 5634 5635 5634 5633 5631 5630 5630 5633 5633 5635 5637 5636 5635 5634 5633 5630 5631 5633 5634 5637 5636 5638 5639 5637
5641 5639 5637 5635 5634 5633 5632 5630 5629 5628 5626 5625 5623 5623 5622 5624 5625 5622 5621 5621 5619 5619 5621 5620 5618 5616 5615 5615 5616 5614 5612 5615 5619 5622 5623 5622 5620 5620 5617 5618 5619 5621 5621 5625 5628 5624 5631
5630 5627 5624 5622 5620 5618 5617 5615 5614 5611 5609 5610 5607 5606 5605 5606 5608 5606 5604 5604 5602 5600 5601 5601 5601 5601 5595 5596 5595 5596 5598 5600 5601 5604 5607 5606 5605 5605 5605 5602 5606 5609 5612 5613 5611 5619 5613
5617 5615 5612 5609 5606 5603 5600 5597 5595 5593 5590 5589 5588 5585 5586 5587 5590 5588 5585 5582 5579 5577 5577 5579 5579 5578 5574 5575 5575 5574 5578 5578 5579 5588 5589 5589 5588 5589 5587 5589 5592 5600 5598 5599 5601 5600 5602
5603 5599 5596 5592 5588 5585 5582 5579 5576 5572 5569 5566 5567 5562 5562 5564 5571 5567 5565 5563 5559 5556 5555 5555 5555 5555 5550 5547 5552 5553 5554 5554 5561 5564 5570 5567 5572 5575 5572 5576 5585 5584 5582 5583 5585 5588 5590
Wind_Speed
11 11 10 10 11 12 11 10 9 10 11 11 12 11 12 14 16 16 17 18 20 19 20 21 20 21 22 22 23 24 25 27 28 29 31 34 36 39 41 42 40 37 32 28 23 23 23
13 13 12 13 13 13 13 13 12 12 12 13 12 12 12 13 14 15 16 17 19 20 21 21 21 20 21 21 23 23 24 25 27 27 29 32 35 37 38 39 40 38 38 33 29 25 23
14 14 14 14 15 15 15 14 14 14 14 14 13 12 12 13 14 15 16 16 17 18 19 21 20 20 20 20 21 23 24 25 26 27 28 31 33 34 37 38 40 39 35 36 33 27 22
15 16 16 16 17 17 17 16 16 15 15 15 14 14 14 14 15 15 15 16 16 17 18 20 20 19 18 18 21 22 25 27 28 28 30 31 32 32 33 34 36 38 38 37 35 29 27
18 18 19 19 19 19 20 19 19 17 16 16 16 15 15 15 15 15 15 15 15 16 16 18 18 18 17 19 20 21 23 26 28 29 30 30 32 32 33 33 33 37 39 39 31 28 27
21 21 22 22 22 23 21 20 21 21 20 19 18 18 17 16 16 15 14 14 14 15 15 16 17 16 17 17 19 22 25 26 27 29 30 30 30 31 31 34 35 37 39 37 34 26 28
25 25 25 26 28 27 26 24 22 23 22 21 20 20 19 17 17 16 15 14 14 14 13 14 15 15 16 17 18 22 25 28 29 29 29 31 30 29 30 32 35 34 36 36 32 27 29
28 28 30 32 32 34 31 29 26 24 24 23 23 21 20 19 18 18 17 16 14 14 14 14 15 16 17 18 20 23 25 27 29 29 29 31 31 31 29 28 32 34 35 33 29 28 28
34 35 36 37 38 36 36 34 31 27 25 24 24 23 23 22 20 20 19 19 18 16 16 18 17 17 18 19 21 23 25 26 28 30 30 30 31 33 31 28 26 31 31 32 31 28 29
34 36 35 36 37 36 39 39 33 32 29 28 26 26 25 25 25 23 22 21 21 20 19 21 19 18 20 20 21 23 25 26 27 29 31 31 31 33 33 32 28 27 28 30 29 30 29
25 25 26 26 27 33 38 38 38 37 34 32 31 28 29 28 27 26 26 25 24 23 24 22 21 22 23 23 24 25 26 26 27 30 30 31 33 33 34 32 31 26 25 27 27 27 28
23 24 25 25 23 25 32 38 40 41 39 35 35 30 32 32 31 29 29 29 28 25 24 24 25 25 26 26 26 27 28 29 29 28 30 31 34 34 30 31 31 27 22 24 23 25 26
22 22 24 24 24 24 25 30 37 39 41 43 38 38 36 34 34 33 31 32 31 28 28 28 28 27 28 28 29 29 30 31 31 30 27 29 32 33 28 29 29 29 26 22 20 23 25
23 24 24 24 24 26 27 27 30 32 35 41 38 40 39 36 36 34 34 33 34 30 30 32 32 32 30 30 32 32 32 32 33 32 31 29 31 31 31 33 33 30 30 28 25 22 21
27 26 26 27 28 28 26 27 27 28 31 37 41 41 42 45 44 37 39 43 40 30 31 33 33 34 32 32 36 34 33 33 33 32 32 33 29 32 31 34 35 32 28 28 24 18 16
32 32 32 32 32 32 32 31 30 30 30 28 31 38 44 46 42 40 41 38 34 36 40 39 37 37 37 34 34 35 35 35 35 32 31 32 32 30 32 33 33 32 30 27 24 24 20
39 39 38 38 36 37 36 36 35 34 32 34 34 33 31 31 33 31 39 42 41 40 38 41 43 43 40 39 39 39 38 35 32 33 35 36 35 27 33 31 30 28 30 27 25 23 24
47 46 46 47 46 44 42 42 41 40 38 36 35 35 35 36 38 37 35 40 43 42 43 43 44 43 41 42 43 41 40 36 36 37 38 38 38 34 28 28 27 28 30 31 25 24 22
48 50 49 49 52 52 51 49 47 45 43 42 41 39 38 39 39 40 41 41 42 45 45 46 46 46 45 44 44 42 41 40 41 42 44 41 38 35 29 30 32 29 30 30 30 25 23
48 49 52 53 53 52 54 55 55 53 51 49 48 48 47 48 49 49 49 48 48 48 49 46 46 44 46 46 47 48 46 44 43 43 44 43 42 38 36 35 35 31 31 32 30 31 24
44 46 48 50 53 54 55 57 57 57 57 56 56 54 53 54 54 56 58 59 58 57 54 53 50 47 48 48 47 48 47 46 47 47 47 45 45 43 40 36 38 35 30 33 33 32 32
43 45 45 46 47 49 49 50 50 52 56 58 56 55 57 55 55 57 57 57 58 55 56 53 53 53 53 51 51 50 50 49 49 50 51 49 49 47 44 40 42 41 31 33 36 32 34
45 45 46 44 43 42 39 38 39 41 44 42 42 42 45 46 43 41 41 42 43 44 45 47 49 49 49 48 48 48 48 49 51 52 53 53 53 51 49 46 44 46 31 34 37 37 37
45 43 45 43 42 41 43 42 43 41 42 42 43 43 43 41 43 45 45 46 45 47 47 47 49 51 48 50 50 50 50 50 51 52 54 55 54 54 53 51 51 44 42 35 37 38 38
45 44 43 43 45 45 44 43 44 44 45 47 48 49 50 49 49 48 50 50 50 51 52 53 52 55 54 56 56 56 55 54 51 52 54 55 55 55 57 56 51 49 46 43 39 39 39
47 45 43 43 45 45 47 47 48 48 48 50 51 52 53 52 52 54 53 54 56 56 58 60 61 62 61 61 62 62 60 56 55 53 53 55 57 58 60 60 57 53 51 44 38 45 34
50 51 50 52 51 51 52 55 58 59 60 60 60 61 59 58 58 58 59 60 62 64 63 63 65 64 67 67 67 66 64 62 61 58 57 58 59 60 60 63 59 58 52 46 48 39 39
50 51 54 55 56 58 58 61 63 64 66 66 66 67 67 66 64 63 64 65 67 69 69 69 69 69 69 67 68 69 68 67 68 63 62 60 61 63 62 61 63 55 51 49 43 43 40
59 59 60 61 62 64 67 68 70 71 72 73 72 74 73 72 69 68 68 68 69 72 74 75 75 76 74 73 69 67 70 71 69 71 66 69 64 59 61 61 54 54 54 50 46 44 41
Wind_Direction
268 269 269 267 274 281 283 287 289 292 298 303 306 308 308 308 307 304 302 303 304 306 309 314 317 321 325 327 331 335 338 338 340 346 350 354 357 0 3 4 1 353 348 341 331 320 315
265 269 271 274 272 276 283 289 290 292 295 298 300 301 304 306 306 305 305 305 307 311 314 317 318 322 325 329 333 334 338 340 341 346 351 355 359 2 2 4 1 357 348 346 339 326 323
261 266 272 277 279 279 282 285 285 288 292 293 296 297 298 303 307 309 309 309 309 311 316 317 318 322 327 331 334 336 338 339 343 348 352 355 358 3 2 2 2 360 354 346 341 339 326
262 268 271 276 281 281 281 281 283 285 286 288 290 293 295 297 301 304 306 307 309 314 318 320 320 325 329 334 335 336 338 339 341 346 350 352 354 1 3 1 1 0 357 354 350 349 338
259 265 270 275 277 281 282 281 280 280 282 285 289 292 291 292 295 298 301 304 310 314 319 321 321 327 331 333 336 340 343 344 343 346 348 350 353 358 359 360 1 360 2 358 4 356 349
256 262 266 270 275 277 278 279 279 278 281 284 286 288 287 285 287 291 294 300 308 313 320 323 322 326 331 337 339 341 342 345 348 349 348 350 352 353 357 356 1 2 3 4 5 5 351
261 263 267 272 273 274 276 276 278 277 276 277 279 282 282 282 283 285 289 294 302 309 317 321 321 323 328 332 337 338 339 342 347 351 353 353 351 350 352 356 357 1 3 7 7 2 357
263 265 266 274 278 271 271 272 272 275 275 274 275 276 276 277 279 281 284 286 291 297 304 314 315 318 324 327 331 333 339 343 345 350 351 354 356 355 350 356 354 359 1 5 2 4 3
267 269 271 274 276 273 266 266 269 271 273 271 272 272 273 273 275 277 280 284 286 288 293 301 305 308 314 319 323 329 335 340 343 343 347 351 354 357 358 353 355 356 358 0 1 6 3
276 279 281 283 278 273 265 265 263 267 269 271 270 271 272 273 274 274 275 277 280 282 284 292 292 296 304 309 314 319 324 332 338 341 344 347 350 350 352 357 356 353 357 359 360 2 4
284 286 288 290 288 275 266 265 265 261 260 266 269 270 274 274 275 277 275 275 277 279 281 283 289 292 296 301 306 311 316 322 329 333 337 341 343 344 342 350 356 354 354 359 356 1 3
281 284 287 292 292 283 271 268 266 264 262 259 265 267 270 273 275 276 277 277 276 276 279 280 281 284 290 295 300 305 309 314 320 325 328 330 335 341 345 344 350 355 353 352 354 358 0
275 278 279 285 291 290 284 276 271 270 264 267 255 267 266 272 273 275 276 277 274 273 275 273 276 280 285 291 295 299 303 308 312 316 319 322 327 332 338 349 347 349 352 348 354 1 357
283 285 281 279 280 279 278 279 279 273 271 266 272 272 271 267 270 269 273 277 277 278 274 273 276 278 283 288 291 292 295 300 304 309 311 316 321 330 331 337 346 347 349 354 351 355 357
280 280 279 281 284 286 284 278 275 278 276 272 269 267 267 271 261 269 273 277 274 281 278 274 276 277 281 286 289 289 291 297 300 302 305 311 321 327 327 333 340 342 342 343 345 344 350
271 273 275 275 276 278 280 281 274 269 271 272 271 271 268 269 268 271 265 271 280 279 275 277 278 279 282 286 284 288 291 299 297 297 299 306 311 317 321 325 330 336 339 338 341 343 345
272 273 272 272 272 274 276 277 278 276 270 267 266 266 266 269 268 274 268 271 276 278 276 274 275 280 281 282 283 286 288 293 296 291 294 300 304 309 318 320 326 328 331 336 337 336 329
274 274 274 275 273 270 270 270 270 272 271 268 266 265 266 265 266 269 278 280 276 274 272 275 278 280 278 276 282 280 283 284 291 294 296 296 298 305 307 313 318 321 324 325 333 333 329
274 274 275 272 270 270 268 266 265 263 262 262 261 261 265 267 266 270 274 276 278 277 273 273 274 277 276 275 277 278 277 283 285 286 287 290 294 300 301 302 304 311 317 316 321 325 328
277 277 277 277 275 272 270 267 266 264 262 261 260 260 261 266 268 271 273 275 277 274 271 271 272 271 272 271 272 273 277 279 279 279 281 283 286 289 294 299 302 307 312 311 310 315 322
279 280 281 281 279 277 275 269 266 266 264 265 264 261 260 264 266 269 273 276 275 272 268 269 268 269 269 270 270 273 274 275 276 278 279 280 285 286 286 288 289 294 300 302 302 305 309
281 283 284 285 282 280 278 274 271 270 267 265 264 262 264 267 267 269 273 272 271 270 267 269 268 268 269 269 269 270 271 273 274 277 279 281 281 282 284 286 287 286 291 296 295 298 301
284 285 284 284 283 281 277 276 276 275 273 274 275 272 270 269 269 268 268 271 270 270 268 268 268 269 270 270 269 268 269 270 271 271 273 275 278 280 282 285 283 282 291 283 287 290 294
284 282 280 279 281 281 281 281 279 278 278 278 275 273 270 269 269 269 269 271 271 271 271 270 272 272 271 270 270 268 266 266 269 271 273 274 275 278 280 281 280 287 283 285 283 285 288
281 279 278 279 280 280 280 281 281 280 279 278 276 275 274 272 270 271 270 270 270 271 270 270 270 270 272 274 273 271 269 267 267 269 272 274 275 276 276 276 279 278 287 286 285 283 285
278 277 276 276 278 278 280 280 279 278 279 279 278 276 274 275 273 273 272 272 271 271 271 273 273 272 271 271 269 268 268 268 267 266 265 267 271 273 274 276 276 278 279 277 279 278 287
278 277 278 279 282 281 280 280 280 280 279 278 277 276 274 274 275 273 272 270 271 269 269 267 264 264 270 269 269 268 268 269 269 270 269 268 267 267 270 272 273 275 278 282 277 287 277
281 281 281 281 280 280 280 280 280 279 279 278 277 275 273 271 270 271 271 271 272 272 271 271 272 272 272 266 267 268 268 268 267 267 268 266 267 266 266 268 270 281 276 273 275 274 276
284 284 283 282 281 281 281 279 278 277 277 276 275 274 273 271 271 270 270 271 272 274 274 273 273 273 276 274 270 267 266 266 265 265 264 264 269 270 266 268 270 271 275 274 270 270 271